Time,TemperatureF,DewpointF,PressureIn,WindDirection,WindDirectionDegrees,WindSpeedMPH,WindSpeedGustMPH,Humidity,HourlyPrecipIn,Conditions,Clouds,dailyrainin,SoftwareType,DateUTC
2013-08-21 00:13:00,67.5,64.1,30.01,SSE,157,0.0,-999.0,89,-99.99,,,0.00,Acu-Link.com,2013-08-21 04:13:00,
2013-08-21 00:28:00,67.1,64.1,30.01,South,180,0.0,-999.0,90,-99.99,,,0.00,Acu-Link.com,2013-08-21 04:28:00,
2013-08-21 00:43:00,66.7,64.0,30.01,South,180,0.0,-999.0,91,-99.99,,,0.00,Acu-Link.com,2013-08-21 04:43:00,
2013-08-21 00:58:00,66.2,63.8,30.01,South,180,0.0,-999.0,92,-99.99,,,0.00,Acu-Link.com,2013-08-21 04:58:00,
2013-08-21 01:13:00,66.0,63.9,30.01,South,180,0.0,-999.0,93,-99.99,,,0.00,Acu-Link.com,2013-08-21 05:13:00,
2013-08-21 01:28:00,66.0,64.2,30.01,South,180,0.0,-999.0,94,-99.99,,,0.00,Acu-Link.com,2013-08-21 05:28:00,
2013-08-21 01:43:00,66.0,64.2,30.01,South,180,0.0,-999.0,94,-99.99,,,0.00,Acu-Link.com,2013-08-21 05:43:00,
2013-08-21 01:59:00,65.8,64.3,30.01,SSW,202,2.2,-999.0,95,-99.99,,,0.00,Acu-Link.com,2013-08-21 05:59:00,
2013-08-21 02:14:00,65.8,64.3,30.01,ESE,112,0.0,-999.0,95,-99.99,,,0.00,Acu-Link.com,2013-08-21 06:14:00,
2013-08-21 02:29:00,65.5,64.0,30.01,East,90,0.0,-999.0,95,-99.99,,,0.00,Acu-Link.com,2013-08-21 06:29:00,
2013-08-21 02:44:00,64.9,63.4,30.01,SE,135,0.0,-999.0,95,-99.99,,,0.00,Acu-Link.com,2013-08-21 06:44:00,
2013-08-21 02:59:00,64.6,63.1,30.02,SSE,157,0.0,-999.0,95,-99.99,,,0.00,Acu-Link.com,2013-08-21 06:59:00,
2013-08-21 03:14:00,64.0,62.5,30.02,South,180,0.0,-999.0,95,-99.99,,,0.00,Acu-Link.com,2013-08-21 07:14:00,
2013-08-21 03:29:00,63.5,62.0,30.02,SSE,157,0.0,-999.0,95,-99.99,,,0.00,Acu-Link.com,2013-08-21 07:29:00,
2013-08-21 03:44:00,63.1,61.6,30.02,SSE,157,0.0,-999.0,95,-99.99,,,0.00,Acu-Link.com,2013-08-21 07:44:00,
2013-08-21 03:59:00,63.1,61.9,30.02,South,180,0.0,-999.0,96,-99.99,,,0.00,Acu-Link.com,2013-08-21 07:59:00,
2013-08-21 04:15:00,63.1,61.9,30.02,SE,135,0.0,-999.0,96,-99.99,,,0.00,Acu-Link.com,2013-08-21 08:15:00,
2013-08-21 04:31:00,63.1,62.2,30.01,SSE,157,0.0,-999.0,97,-99.99,,,0.00,Acu-Link.com,2013-08-21 08:31:00,
2013-08-21 04:46:00,63.5,62.6,30.01,SE,135,0.0,-999.0,97,-99.99,,,0.00,Acu-Link.com,2013-08-21 08:46:00,
2013-08-21 05:01:00,63.5,62.6,30.01,South,180,0.0,-999.0,97,-99.99,,,0.00,Acu-Link.com,2013-08-21 09:01:00,
2013-08-21 05:16:00,63.9,63.0,30.01,SE,135,0.0,-999.0,97,-99.99,,,0.00,Acu-Link.com,2013-08-21 09:16:00,
2013-08-21 05:31:00,63.7,62.8,30.01,SE,135,0.0,-999.0,97,-99.99,,,0.00,Acu-Link.com,2013-08-21 09:31:00,
2013-08-21 05:47:00,63.3,62.4,30.02,SE,135,0.0,-999.0,97,-99.99,,,0.00,Acu-Link.com,2013-08-21 09:47:00,
2013-08-21 06:02:00,63.3,62.4,30.02,ESE,112,0.0,-999.0,97,-99.99,,,0.00,Acu-Link.com,2013-08-21 10:02:00,
2013-08-21 06:17:00,63.3,62.7,30.02,SSE,157,0.0,-999.0,98,-99.99,,,0.00,Acu-Link.com,2013-08-21 10:17:00,
2013-08-21 06:32:00,63.3,62.7,30.02,ESE,112,0.0,-999.0,98,-99.99,,,0.00,Acu-Link.com,2013-08-21 10:32:00,
2013-08-21 06:47:00,63.1,62.5,30.03,SE,135,0.0,-999.0,98,-99.99,,,0.00,Acu-Link.com,2013-08-21 10:47:00,
2013-08-21 07:02:00,62.8,62.2,30.03,SE,135,0.0,-999.0,98,-99.99,,,0.00,Acu-Link.com,2013-08-21 11:02:00,
2013-08-21 07:17:00,63.9,63.3,30.03,South,180,0.0,-999.0,98,-99.99,,,0.00,Acu-Link.com,2013-08-21 11:17:00,
2013-08-21 07:33:00,64.6,64.0,30.03,South,180,0.0,-999.0,98,-99.99,,,0.00,Acu-Link.com,2013-08-21 11:33:00,
2013-08-21 07:48:00,65.5,64.6,30.03,ESE,112,1.1,-999.0,97,-99.99,,,0.00,Acu-Link.com,2013-08-21 11:48:00,
2013-08-21 08:03:00,67.1,65.3,30.04,SSE,157,2.2,-999.0,94,-99.99,,,0.00,Acu-Link.com,2013-08-21 12:03:00,
2013-08-21 08:18:00,68.7,65.6,30.04,SSW,202,1.7,-999.0,90,-99.99,,,0.00,Acu-Link.com,2013-08-21 12:18:00,
2013-08-21 08:33:00,70.7,65.6,30.04,SSW,202,2.2,-999.0,84,-99.99,,,0.00,Acu-Link.com,2013-08-21 12:33:00,
2013-08-21 08:48:00,72.5,66.3,30.04,South,180,2.7,-999.0,81,-99.99,,,0.00,Acu-Link.com,2013-08-21 12:48:00,
2013-08-21 09:03:00,73.8,66.9,30.04,South,180,2.2,-999.0,79,-99.99,,,0.00,Acu-Link.com,2013-08-21 13:03:00,
2013-08-21 09:18:00,75.7,68.0,30.03,East,90,0.0,-999.0,77,-99.99,,,0.00,Acu-Link.com,2013-08-21 13:18:00,
2013-08-21 09:33:00,76.6,68.1,30.03,South,180,3.2,-999.0,75,-99.99,,,0.00,Acu-Link.com,2013-08-21 13:33:00,
2013-08-21 09:48:00,77.0,68.1,30.03,SE,135,3.2,-999.0,74,-99.99,,,0.00,Acu-Link.com,2013-08-21 13:48:00,
2013-08-21 10:04:00,78.6,68.8,30.02,SSE,157,3.2,-999.0,72,-99.99,,,0.00,Acu-Link.com,2013-08-21 14:04:00,
2013-08-21 10:19:00,79.9,69.2,30.02,South,180,3.7,-999.0,70,-99.99,,,0.00,Acu-Link.com,2013-08-21 14:19:00,
2013-08-21 10:34:00,80.2,69.1,30.03,South,180,2.7,-999.0,69,-99.99,,,0.00,Acu-Link.com,2013-08-21 14:34:00,
2013-08-21 10:49:00,81.1,69.9,30.02,South,180,4.7,-999.0,69,-99.99,,,0.00,Acu-Link.com,2013-08-21 14:49:00,
2013-08-21 11:04:00,81.3,70.6,30.02,NE,45,0.0,-999.0,70,-99.99,,,0.00,Acu-Link.com,2013-08-21 15:04:00,
2013-08-21 11:19:00,82.0,70.4,30.01,West,270,0.0,-999.0,68,-99.99,,,0.00,Acu-Link.com,2013-08-21 15:19:00,
2013-08-21 11:35:00,83.3,70.3,30.01,West,270,5.8,-999.0,65,-99.99,,,0.00,Acu-Link.com,2013-08-21 15:35:00,
2013-08-21 11:50:00,83.7,70.7,30.01,SSE,157,5.8,-999.0,65,-99.99,,,0.00,Acu-Link.com,2013-08-21 15:50:00,
2013-08-21 12:05:00,84.6,71.1,30.00,SE,135,2.7,-999.0,64,-99.99,,,0.00,Acu-Link.com,2013-08-21 16:05:00,
2013-08-21 12:20:00,85.6,71.1,30.00,South,180,4.2,-999.0,62,-99.99,,,0.00,Acu-Link.com,2013-08-21 16:20:00,
2013-08-21 12:35:00,86.4,70.8,29.99,SSE,157,5.3,-999.0,60,-99.99,,,0.00,Acu-Link.com,2013-08-21 16:35:00,
2013-08-21 12:50:00,86.4,70.8,30.00,South,180,4.2,-999.0,60,-99.99,,,0.00,Acu-Link.com,2013-08-21 16:50:00,
2013-08-21 13:06:00,86.9,69.8,29.99,SE,135,6.8,-999.0,57,-99.99,,,0.00,Acu-Link.com,2013-08-21 17:06:00,
2013-08-21 13:21:00,86.7,70.1,29.99,ENE,67,4.2,-999.0,58,-99.99,,,0.00,Acu-Link.com,2013-08-21 17:21:00,
2013-08-21 13:36:00,86.4,70.8,29.98,ESE,112,5.3,-999.0,60,-99.99,,,0.00,Acu-Link.com,2013-08-21 17:36:00,
2013-08-21 13:51:00,87.4,71.3,29.97,South,180,5.3,-999.0,59,-99.99,,,0.00,Acu-Link.com,2013-08-21 17:51:00,
2013-08-21 14:06:00,88.5,71.3,29.97,South,180,5.8,-999.0,57,-99.99,,,0.00,Acu-Link.com,2013-08-21 18:06:00,
2013-08-21 14:21:00,88.2,70.5,29.96,East,90,3.2,-999.0,56,-99.99,,,0.00,Acu-Link.com,2013-08-21 18:21:00,
2013-08-21 14:37:00,86.7,69.6,29.94,South,180,2.2,-999.0,57,-99.99,,,0.00,Acu-Link.com,2013-08-21 18:37:00,
2013-08-21 14:52:00,87.6,68.9,29.95,ESE,112,6.3,-999.0,54,-99.99,,,0.00,Acu-Link.com,2013-08-21 18:52:00,
2013-08-21 15:07:00,87.6,69.9,29.94,SSE,157,3.7,-999.0,56,-99.99,,,0.00,Acu-Link.com,2013-08-21 19:07:00,
2013-08-21 15:22:00,88.5,70.2,29.93,ESE,112,6.3,-999.0,55,-99.99,,,0.00,Acu-Link.com,2013-08-21 19:22:00,
2013-08-21 15:38:00,88.3,70.1,29.92,South,180,3.2,-999.0,55,-99.99,,,0.00,Acu-Link.com,2013-08-21 19:38:00,
2013-08-21 15:53:00,88.2,69.4,29.92,South,180,1.7,-999.0,54,-99.99,,,0.00,Acu-Link.com,2013-08-21 19:53:00,
2013-08-21 16:08:00,88.3,69.0,29.92,SSE,157,3.7,-999.0,53,-99.99,,,0.00,Acu-Link.com,2013-08-21 20:08:00,
2013-08-21 16:23:00,87.8,68.5,29.92,East,90,4.2,-999.0,53,-99.99,,,0.00,Acu-Link.com,2013-08-21 20:23:00,
2013-08-21 16:38:00,87.8,68.5,29.91,ESE,112,5.8,-999.0,53,-99.99,,,0.00,Acu-Link.com,2013-08-21 20:38:00,
2013-08-21 16:53:00,86.7,69.1,29.90,West,270,4.7,-999.0,56,-99.99,,,0.00,Acu-Link.com,2013-08-21 20:53:00,
2013-08-21 17:08:00,87.4,68.7,29.90,West,270,1.7,-999.0,54,-99.99,,,0.00,Acu-Link.com,2013-08-21 21:08:00,
2013-08-21 17:23:00,87.8,69.0,29.89,South,180,3.7,-999.0,54,-99.99,,,0.00,Acu-Link.com,2013-08-21 21:23:00,
2013-08-21 17:38:00,86.5,67.8,29.89,South,180,5.3,-999.0,54,-99.99,,,0.00,Acu-Link.com,2013-08-21 21:38:00,
2013-08-21 17:54:00,87.3,68.6,29.88,SE,135,2.2,-999.0,54,-99.99,,,0.00,Acu-Link.com,2013-08-21 21:54:00,
2013-08-21 18:09:00,90.1,69.5,29.88,SSE,157,2.2,-999.0,51,-99.99,,,0.00,Acu-Link.com,2013-08-21 22:09:00,
2013-08-21 18:24:00,88.7,68.2,29.87,South,180,2.7,-999.0,51,-99.99,,,0.00,Acu-Link.com,2013-08-21 22:24:00,
2013-08-21 18:39:00,87.6,68.3,29.87,South,180,3.7,-999.0,53,-99.99,,,0.00,Acu-Link.com,2013-08-21 22:39:00,
2013-08-21 18:54:00,87.4,68.7,29.87,South,180,3.2,-999.0,54,-99.99,,,0.00,Acu-Link.com,2013-08-21 22:54:00,
2013-08-21 19:09:00,84.9,67.9,29.87,NE,45,2.7,-999.0,57,-99.99,,,0.00,Acu-Link.com,2013-08-21 23:09:00,
2013-08-21 19:24:00,83.8,67.4,29.87,South,180,1.7,-999.0,58,-99.99,,,0.00,Acu-Link.com,2013-08-21 23:24:00,
2013-08-21 19:39:00,82.8,67.0,29.86,South,180,1.7,-999.0,59,-99.99,,,0.00,Acu-Link.com,2013-08-21 23:39:00,
2013-08-21 19:54:00,82.6,66.8,29.87,ESE,112,2.2,-999.0,59,-99.99,,,0.00,Acu-Link.com,2013-08-21 23:54:00,
2013-08-21 20:10:00,81.1,65.9,29.87,West,270,1.1,-999.0,60,-99.99,,,0.00,Acu-Link.com,2013-08-22 00:10:00,
2013-08-21 20:25:00,80.1,65.9,29.88,WSW,247,1.1,-999.0,62,-99.99,,,0.00,Acu-Link.com,2013-08-22 00:25:00,
2013-08-21 20:40:00,78.4,65.6,29.88,South,180,1.7,-999.0,65,-99.99,,,0.00,Acu-Link.com,2013-08-22 00:40:00,
2013-08-21 20:55:00,77.4,65.6,29.89,SE,135,0.0,-999.0,67,-99.99,,,0.00,Acu-Link.com,2013-08-22 00:55:00,
2013-08-21 21:10:00,75.9,65.4,29.90,WSW,247,0.0,-999.0,70,-99.99,,,0.00,Acu-Link.com,2013-08-22 01:10:00,
2013-08-21 21:25:00,74.1,65.3,29.90,SSE,157,0.0,-999.0,74,-99.99,,,0.00,Acu-Link.com,2013-08-22 01:25:00,
2013-08-21 21:41:00,73.4,65.4,29.91,South,180,0.0,-999.0,76,-99.99,,,0.00,Acu-Link.com,2013-08-22 01:41:00,
2013-08-21 21:56:00,72.7,65.1,29.92,South,180,0.0,-999.0,77,-99.99,,,0.00,Acu-Link.com,2013-08-22 01:56:00,
2013-08-21 22:11:00,71.8,65.3,29.93,WSW,247,0.0,-999.0,80,-99.99,,,0.00,Acu-Link.com,2013-08-22 02:11:00,
2013-08-21 22:26:00,72.1,65.2,29.92,South,180,0.0,-999.0,79,-99.99,,,0.00,Acu-Link.com,2013-08-22 02:26:00,
2013-08-21 22:41:00,72.5,65.2,29.92,SSW,202,1.1,-999.0,78,-99.99,,,0.00,Acu-Link.com,2013-08-22 02:41:00,
2013-08-21 22:56:00,73.0,65.7,29.91,North,0,0.0,-999.0,78,-99.99,,,0.00,Acu-Link.com,2013-08-22 02:56:00,
2013-08-21 23:11:00,73.4,65.7,29.91,SW,225,2.2,-999.0,77,-99.99,,,0.00,Acu-Link.com,2013-08-22 03:11:00,
2013-08-21 23:26:00,73.6,65.9,29.91,SSE,157,0.0,-999.0,77,-99.99,,,0.00,Acu-Link.com,2013-08-22 03:26:00,
2013-08-21 23:42:00,73.4,65.7,29.91,South,180,0.0,-999.0,77,-99.99,,,0.00,Acu-Link.com,2013-08-22 03:42:00,
2013-08-21 23:57:00,73.6,65.9,29.90,South,180,0.0,-999.0,77,-99.99,,,0.00,Acu-Link.com,2013-08-22 03:57:00,